Overview Statistics Trail Chart Weather Telemetry Raw packets
 

This is the latest recevied weather packets stored in our database for station/object OE3APM-13. If no packets are shown the sender has not sent any weather packets the latest 10 day(s).

<< 88 89 90 91 92 93 94 >>
Time Temp. Humidity Pressure Rain* Wind** Luminosity Snow
1787968258 15.56° C 91% 1015.6 hPa 0 mm - 0 W/m² -
1787967950 15.56° C 91% 1015.7 hPa 0 mm - 0 W/m² -
1787967644 15.56° C 91% 1015.7 hPa 0 mm - 0 W/m² -
1787967344 15.56° C 91% 1015.8 hPa 0 mm - 0 W/m² -
1787967042 15.56° C 91% 1016.2 hPa 0 mm - 0 W/m² -
1787966740 15.56° C 91% 1016.7 hPa 0 mm - 0 W/m² -
1787966438 16.11° C 91% 1016.7 hPa 0 mm - 0 W/m² -
1787966136 16.11° C 91% 1016.7 hPa 0 mm - 0 W/m² -
1787965837 16.11° C 91% 1016.9 hPa 0 mm - 0 W/m² -
1787965539 16.11° C 91% 1017.3 hPa 0 mm - 0 W/m² -
1787965264 16.11° C 91% 1017.4 hPa 0 mm - 0 W/m² -
1787964934 16.11° C 91% 1017.6 hPa 0 mm - 0 W/m² -
1787964631 16.11° C 91% 1017.6 hPa 0 mm - 0 W/m² -
1787964331 16.11° C 91% 1017.5 hPa 0 mm - 0 W/m² -
1787964032 16.11° C 90% 1017.4 hPa 0 mm - 0 W/m² -
1787963729 16.11° C 90% 1017.3 hPa 0 mm - 0 W/m² -
1787963431 16.11° C 90% 1017.1 hPa 0 mm - 0 W/m² -
1787963129 16.11° C 90% 1017.1 hPa 0 mm - 0 W/m² -
1787962830 16.11° C 90% 1017.2 hPa 0 mm - 0 W/m² -
1787962532 16.11° C 90% 1017.1 hPa 0.25 mm - 0 W/m² -
1787962230 16.11° C 89% 1017 hPa 0.51 mm - 0 W/m² -
1787961928 16.11° C 89% 1017 hPa 1.02 mm - 0 W/m² -
1787961623 16.11° C 89% 1016.8 hPa 1.52 mm - 0 W/m² -
1787961313 16.11° C 89% 1016.8 hPa 2.03 mm - 0 W/m² -
1787961012 16.11° C 89% 1016.9 hPa 2.03 mm - 0 W/m² -

* Rain latest hour (hover to see other rain measurements)
** Current wind speed in m/s (hover to see current wind gust speed)